{"data":{"norad_id":51857,"intl_designator":"2022-022F","name":"STARLINK-3571","alt_names":[],"object_type":"PAYLOAD","status":"ACTIVE","operator":null,"country":"US","launch_date":"2022-03-03","launch_site_code":"AFETR","launch_vehicle":null,"mission":null,"orbit_class":"UNKNOWN","rcs_meters":null,"size_class":null,"mass_kg":null,"dimensions":null,"purposes":["comms"],"wikipedia_slug":null,"has_3d_model":false,"image_url":null,"decayed_at":null,"tle_current":{"epoch":"2026-09-19T11:48:37.492704Z","epoch_age_seconds":139347,"freshness":"FRESH","line1":"1 51857U 22022F   26262.49210061 -.00000165  00000+0  64475-5 0  9998","line2":"2 51857  53.1588 215.5431 0001242  86.7269 273.3875 15.31700717252462","mean_motion":15.31700717,"eccentricity":0.0001242,"inclination_deg":53.1588,"raan_deg":215.5431,"arg_perigee_deg":86.7269,"mean_anomaly_deg":273.3875,"bstar":6.4475e-6,"rev_number":25246,"period_min":94.013143952847,"perigee_km":469.88722762944,"apogee_km":471.58848814414,"semimajor_km":6848.8748578868,"source":"CELESTRAK","updated_at":"2026-09-20T09:00:39.945322Z"}}}